CPQ851 KGLS-KAMA

Flight info

Callsign CPQ851
Flight time 2h 3m
Altitude 24000
Route STYCK8 DOLEY FUZ KVLIP
Aircraft DH8D/M-SDE2E3FGRUY/L

Departure

Time 2026-04-25 20:56
Airport Scholes International At Galveston Airport (KGLS)

Arrival

Time 2026-04-25 23:00
Airport Rick Husband Amarillo International Airport (KAMA)
Time Latitude Longitude Altitude Speed Heading
2026-04-25 20:25 29.26825 -94.85592 13 ft 0 kts 180°
2026-04-25 20:52 29.26810 -94.85602 13 ft 7 kts 236°
2026-04-25 20:52 29.26798 -94.85687 12 ft 12 kts 269°
2026-04-25 20:53 29.26850 -94.85744 11 ft 13 kts 359°
2026-04-25 20:53 29.26989 -94.85742 10 ft 23 kts
2026-04-25 20:53 29.27144 -94.85740 10 ft 20 kts
2026-04-25 20:53 29.27245 -94.85796 10 ft 10 kts 308°
2026-04-25 20:54 29.27251 -94.85805 10 ft 0 kts 308°
2026-04-25 20:54 29.27256 -94.85811 10 ft 6 kts 308°
2026-04-25 20:55 29.27314 -94.85889 10 ft 11 kts 335°
2026-04-25 20:55 29.27314 -94.85909 10 ft 3 kts 179°
2026-04-25 20:55 29.27142 -94.85912 10 ft 63 kts 180°
2026-04-25 20:55 29.26452 -94.85923 13 ft 131 kts 180°
2026-04-25 20:56 29.25431 -94.85944 189 ft 154 kts 180°
2026-04-25 20:56 29.24329 -94.86002 679 ft 161 kts 183°
2026-04-25 20:56 29.23228 -94.86475 996 ft 182 kts 220°
2026-04-25 20:56 29.22597 -94.87753 1401 ft 193 kts 251°
2026-04-25 20:57 29.22234 -94.89248 1788 ft 206 kts 251°
2026-04-25 20:57 29.21810 -94.90922 1898 ft 230 kts 251°
2026-04-25 20:57 29.21338 -94.92768 1939 ft 247 kts 251°
2026-04-25 20:57 29.20854 -94.94621 1931 ft 239 kts 251°
2026-04-25 20:58 29.20702 -94.96446 2047 ft 225 kts 279°
2026-04-25 20:58 29.21362 -94.97951 2254 ft 206 kts 309°
2026-04-25 20:58 29.22307 -94.99113 2411 ft 198 kts 312°
2026-04-25 20:58 29.23292 -95.00310 2672 ft 214 kts 312°
2026-04-25 20:59 29.24334 -95.01584 3048 ft 223 kts 312°
2026-04-25 20:59 29.25400 -95.02894 3483 ft 229 kts 312°
2026-04-25 20:59 29.26501 -95.04243 3952 ft 233 kts 312°
2026-04-25 20:59 29.27616 -95.05608 4428 ft 235 kts 312°
2026-04-25 21:00 29.28725 -95.06963 4905 ft 236 kts 312°
2026-04-25 21:00 29.29471 -95.07874 5235 ft 237 kts 312°
2026-04-25 21:00 29.32099 -95.11096 6374 ft 237 kts 312°
2026-04-25 21:01 29.33220 -95.12476 6857 ft 237 kts 312°
2026-04-25 21:01 29.34337 -95.13873 7330 ft 237 kts 313°
2026-04-25 21:01 29.35424 -95.15263 7797 ft 236 kts 313°
2026-04-25 21:01 29.36513 -95.16669 8268 ft 235 kts 313°
2026-04-25 21:02 29.37594 -95.18084 8725 ft 234 kts 313°
2026-04-25 21:02 29.38659 -95.19493 9173 ft 233 kts 312°
2026-04-25 21:02 29.39704 -95.20868 9593 ft 232 kts 312°
2026-04-25 21:02 29.40761 -95.22253 10022 ft 230 kts 312°
2026-04-25 21:03 29.41869 -95.23563 10426 ft 228 kts 324°
2026-04-25 21:03 29.43352 -95.24193 10776 ft 228 kts 355°
2026-04-25 21:03 29.44931 -95.24099 11147 ft 228 kts
2026-04-25 21:03 29.46489 -95.23977 11430 ft 228 kts 350°
2026-04-25 21:04 29.48060 -95.24430 11629 ft 233 kts 342°
2026-04-25 21:04 29.49629 -95.24948 11875 ft 238 kts 342°
2026-04-25 21:04 29.51225 -95.25442 12146 ft 240 kts 343°
2026-04-25 21:04 29.52871 -95.25925 12434 ft 242 kts 343°
2026-04-25 21:05 29.54509 -95.26387 12729 ft 244 kts 344°
2026-04-25 21:05 29.56169 -95.26840 13034 ft 244 kts 344°
2026-04-25 21:05 29.57834 -95.27285 13335 ft 245 kts 344°
2026-04-25 21:05 29.59476 -95.27715 13630 ft 245 kts 344°
2026-04-25 21:06 29.61150 -95.28149 13919 ft 245 kts 344°
2026-04-25 21:06 29.62801 -95.28573 14197 ft 244 kts 343°
2026-04-25 21:06 29.64478 -95.29001 14475 ft 244 kts 343°
2026-04-25 21:06 29.65583 -95.29282 14657 ft 244 kts 343°
2026-04-25 21:07 29.67786 -95.29839 15012 ft 244 kts 343°
2026-04-25 21:07 29.69440 -95.30255 15266 ft 244 kts 343°
2026-04-25 21:07 29.71096 -95.30672 15515 ft 243 kts 343°
2026-04-25 21:07 29.72767 -95.31092 15759 ft 243 kts 343°
2026-04-25 21:08 29.74412 -95.31505 16002 ft 243 kts 343°
2026-04-25 21:08 29.76052 -95.31917 16236 ft 242 kts 343°
2026-04-25 21:08 29.77708 -95.32333 16461 ft 242 kts 342°
2026-04-25 21:08 29.79367 -95.32749 16675 ft 242 kts 342°
2026-04-25 21:09 29.82694 -95.33586 16940 ft 248 kts 342°
2026-04-25 21:09 29.84410 -95.34018 17094 ft 250 kts 342°
2026-04-25 21:09 29.86094 -95.34441 17259 ft 252 kts 342°
2026-04-25 21:10 29.87830 -95.34876 17433 ft 252 kts 342°
2026-04-25 21:10 29.89554 -95.35309 17606 ft 253 kts 342°
2026-04-25 21:10 29.91260 -95.35738 17775 ft 253 kts 342°
2026-04-25 21:10 29.92995 -95.36173 17952 ft 253 kts 342°
2026-04-25 21:11 29.94719 -95.36606 18120 ft 253 kts 342°
2026-04-25 21:11 29.96429 -95.37035 18286 ft 253 kts 342°
2026-04-25 21:11 29.98161 -95.37471 18449 ft 253 kts 341°
2026-04-25 21:11 29.99897 -95.37908 18614 ft 253 kts 341°
2026-04-25 21:12 30.01620 -95.38341 18761 ft 253 kts 341°
2026-04-25 21:12 30.03333 -95.38773 18908 ft 253 kts 341°
2026-04-25 21:12 30.05052 -95.39206 19057 ft 253 kts 341°
2026-04-25 21:12 30.06199 -95.39494 19153 ft 253 kts 341°
2026-04-25 21:13 30.08508 -95.40076 19352 ft 253 kts 341°
2026-04-25 21:13 30.10168 -95.40653 19475 ft 247 kts 331°
2026-04-25 21:13 30.11741 -95.41517 19616 ft 246 kts 328°
2026-04-25 21:13 30.13269 -95.42388 19749 ft 246 kts 328°
2026-04-25 21:14 30.14824 -95.43276 19780 ft 250 kts 328°
2026-04-25 21:14 30.16385 -95.44163 19833 ft 253 kts 329°
2026-04-25 21:14 30.17976 -95.45064 19902 ft 256 kts 329°
2026-04-25 21:14 30.19589 -95.45977 19978 ft 257 kts 329°
2026-04-25 21:15 30.21197 -95.46886 20070 ft 258 kts 329°
2026-04-25 21:15 30.22809 -95.47797 20162 ft 258 kts 328°
2026-04-25 21:15 30.24432 -95.48713 20256 ft 259 kts 329°
2026-04-25 21:15 30.26055 -95.49628 20353 ft 259 kts 329°
2026-04-25 21:16 30.27660 -95.50535 20453 ft 259 kts 329°
2026-04-25 21:16 30.29290 -95.51455 20548 ft 259 kts 328°
2026-04-25 21:16 30.30909 -95.52369 20640 ft 259 kts 329°
2026-04-25 21:16 30.32526 -95.53281 20730 ft 259 kts 328°
2026-04-25 21:17 30.34150 -95.54198 20817 ft 259 kts 329°
2026-04-25 21:17 30.35769 -95.55114 20902 ft 259 kts 329°
2026-04-25 21:17 30.37377 -95.56023 20989 ft 259 kts 328°
2026-04-25 21:17 30.39008 -95.56944 21070 ft 258 kts 328°
2026-04-25 21:18 30.40606 -95.57848 21143 ft 258 kts 328°
2026-04-25 21:18 30.42218 -95.58760 21208 ft 258 kts 328°
2026-04-25 21:18 30.43851 -95.59684 21291 ft 258 kts 328°
2026-04-25 21:18 30.45469 -95.60600 21371 ft 258 kts 328°
2026-04-25 21:19 30.47073 -95.61510 21450 ft 258 kts 328°
2026-04-25 21:19 30.48670 -95.62415 21514 ft 257 kts 329°
2026-04-25 21:19 30.50281 -95.63326 21669 ft 253 kts 328°
2026-04-25 21:19 30.51857 -95.64218 21818 ft 250 kts 328°
2026-04-25 21:20 30.53409 -95.65097 21938 ft 247 kts 328°
2026-04-25 21:20 30.54453 -95.65679 22017 ft 247 kts 329°
2026-04-25 21:20 30.56518 -95.66779 22152 ft 245 kts 328°
2026-04-25 21:20 30.58082 -95.67608 22237 ft 244 kts 329°
2026-04-25 21:21 30.59627 -95.68429 22315 ft 243 kts 329°
2026-04-25 21:21 30.61163 -95.69246 22386 ft 242 kts 329°
2026-04-25 21:21 30.62694 -95.70061 22458 ft 242 kts 328°
2026-04-25 21:21 30.64205 -95.70868 22527 ft 241 kts 329°
2026-04-25 21:22 30.65730 -95.71682 22585 ft 241 kts 328°
2026-04-25 21:22 30.67256 -95.72497 22639 ft 240 kts 328°
2026-04-25 21:22 30.68785 -95.73314 22687 ft 240 kts 328°
2026-04-25 21:22 30.70301 -95.74125 22740 ft 240 kts 329°
2026-04-25 21:23 30.71815 -95.74935 22792 ft 239 kts 328°
2026-04-25 21:23 30.73324 -95.75741 22908 ft 236 kts 328°
2026-04-25 21:23 30.74801 -95.76530 23031 ft 232 kts 328°
2026-04-25 21:23 30.76260 -95.77310 23155 ft 228 kts 328°
2026-04-25 21:24 30.77687 -95.78073 23274 ft 224 kts 328°
2026-04-25 21:24 30.79089 -95.78824 23383 ft 219 kts 327°
2026-04-25 21:24 30.80455 -95.79554 23480 ft 215 kts 327°
2026-04-25 21:24 30.81809 -95.80279 23566 ft 211 kts 327°
2026-04-25 21:25 30.83122 -95.80983 23629 ft 207 kts 327°
2026-04-25 21:25 30.84417 -95.81676 23733 ft 202 kts 327°
2026-04-25 21:25 30.85694 -95.82361 23762 ft 199 kts 327°
2026-04-25 21:25 30.86935 -95.83026 23766 ft 197 kts 327°
2026-04-25 21:26 30.88188 -95.83698 23775 ft 194 kts 326°
2026-04-25 21:26 30.89456 -95.84380 23813 ft 211 kts 327°
2026-04-25 21:26 30.90845 -95.85133 23807 ft 233 kts 328°
2026-04-25 21:26 30.92387 -95.85972 23804 ft 255 kts 328°
2026-04-25 21:27 30.94071 -95.86886 23797 ft 276 kts 328°
2026-04-25 21:27 30.95854 -95.87849 23796 ft 294 kts 329°
2026-04-25 21:27 30.97780 -95.88889 23796 ft 311 kts 329°
2026-04-25 21:27 30.99778 -95.89965 23792 ft 324 kts 330°
2026-04-25 21:28 31.01864 -95.91088 23790 ft 335 kts 330°
2026-04-25 21:28 31.03982 -95.92228 23765 ft 332 kts 330°
2026-04-25 21:28 31.06067 -95.93350 23768 ft 325 kts 330°
2026-04-25 21:28 31.08074 -95.94430 23770 ft 318 kts 329°
2026-04-25 21:29 31.10082 -95.95514 23776 ft 313 kts 329°
2026-04-25 21:29 31.12045 -95.96565 23779 ft 310 kts 330°
2026-04-25 21:29 31.14079 -95.97455 23778 ft 309 kts 335°
2026-04-25 21:29 31.16104 -95.98233 23775 ft 307 kts 335°
2026-04-25 21:30 31.18131 -95.99009 23771 ft 304 kts 335°
2026-04-25 21:30 31.20132 -95.99777 23775 ft 302 kts 335°
2026-04-25 21:30 31.22143 -96.00552 23774 ft 300 kts 335°
2026-04-25 21:30 31.23450 -96.01055 23772 ft 299 kts 335°
2026-04-25 21:31 31.26080 -96.02071 23780 ft 297 kts 335°
2026-04-25 21:31 31.28024 -96.02824 23778 ft 296 kts 335°
2026-04-25 21:31 31.29980 -96.03581 23779 ft 295 kts 335°
2026-04-25 21:31 31.31933 -96.04338 23779 ft 294 kts 335°
2026-04-25 21:32 31.33879 -96.05094 23784 ft 293 kts 335°
2026-04-25 21:32 31.35819 -96.05847 23775 ft 293 kts 335°
2026-04-25 21:32 31.37751 -96.06598 23770 ft 292 kts 335°
2026-04-25 21:32 31.39669 -96.07343 23773 ft 291 kts 335°
2026-04-25 21:33 31.41603 -96.08096 23772 ft 291 kts 335°
2026-04-25 21:33 31.43521 -96.08843 23772 ft 291 kts 335°
2026-04-25 21:33 31.45443 -96.09591 23769 ft 290 kts 335°
2026-04-25 21:33 31.47355 -96.10335 23771 ft 290 kts 335°
2026-04-25 21:34 31.49246 -96.11073 23770 ft 289 kts 335°
2026-04-25 21:34 31.51168 -96.11822 23770 ft 289 kts 335°
2026-04-25 21:34 31.53085 -96.12570 23765 ft 289 kts 335°
2026-04-25 21:34 31.54979 -96.13309 23760 ft 289 kts 335°
2026-04-25 21:35 31.56895 -96.14056 23756 ft 288 kts 335°
2026-04-25 21:35 31.58782 -96.14793 23760 ft 288 kts 334°
2026-04-25 21:35 31.60700 -96.15543 23766 ft 287 kts 335°
2026-04-25 21:35 31.62593 -96.16283 23768 ft 287 kts 334°
2026-04-25 21:36 31.64490 -96.17024 23776 ft 286 kts 335°
2026-04-25 21:36 31.66356 -96.17755 23779 ft 286 kts 335°
2026-04-25 21:36 31.68249 -96.18496 23779 ft 286 kts 334°
2026-04-25 21:36 31.70138 -96.19235 23773 ft 286 kts 335°
2026-04-25 21:37 31.72020 -96.19972 23774 ft 285 kts 335°
2026-04-25 21:37 31.73275 -96.20464 23770 ft 285 kts 334°
2026-04-25 21:37 31.75785 -96.21448 23777 ft 284 kts 334°
2026-04-25 21:37 31.77659 -96.22183 23775 ft 284 kts 335°
2026-04-25 21:38 31.79539 -96.22921 23775 ft 284 kts 335°
2026-04-25 21:38 31.81419 -96.23659 23777 ft 284 kts 335°
2026-04-25 21:38 31.83286 -96.24392 23775 ft 284 kts 335°
2026-04-25 21:38 31.85162 -96.25129 23778 ft 284 kts 335°
2026-04-25 21:39 31.87040 -96.25867 23779 ft 284 kts 335°
2026-04-25 21:39 31.88914 -96.26605 23779 ft 284 kts 335°
2026-04-25 21:39 31.90788 -96.27341 23778 ft 283 kts 335°
2026-04-25 21:39 31.92650 -96.28075 23781 ft 283 kts 334°
2026-04-25 21:40 31.94523 -96.28812 23785 ft 283 kts 334°
2026-04-25 21:40 31.96372 -96.29540 23787 ft 283 kts 334°
2026-04-25 21:40 31.98240 -96.30276 23790 ft 282 kts 334°
2026-04-25 21:40 32.00127 -96.31020 23791 ft 282 kts 335°
2026-04-25 21:41 32.01971 -96.31747 23791 ft 282 kts 334°
2026-04-25 21:41 32.03843 -96.32486 23792 ft 282 kts 334°
2026-04-25 21:41 32.05708 -96.33222 23793 ft 282 kts 335°
2026-04-25 21:41 32.07560 -96.33955 23700 ft 285 kts 334°
2026-04-25 21:42 32.09462 -96.34708 23573 ft 289 kts 334°
2026-04-25 21:42 32.11388 -96.35472 23450 ft 293 kts 335°
2026-04-25 21:42 32.13339 -96.36245 23330 ft 297 kts 335°
2026-04-25 21:42 32.15311 -96.37026 23205 ft 300 kts 335°
2026-04-25 21:43 32.17313 -96.37818 23083 ft 303 kts 335°
2026-04-25 21:43 32.19208 -96.38838 22936 ft 296 kts 320°
2026-04-25 21:43 32.20749 -96.40431 22829 ft 295 kts 312°
2026-04-25 21:43 32.22223 -96.42097 22708 ft 297 kts 312°
2026-04-25 21:44 32.23724 -96.43796 22584 ft 299 kts 312°
2026-04-25 21:44 32.25222 -96.45492 22458 ft 301 kts 312°
2026-04-25 21:44 32.28278 -96.48944 22209 ft 305 kts 312°
2026-04-25 21:45 32.29800 -96.50662 22086 ft 306 kts 312°
2026-04-25 21:45 32.30827 -96.51820 22003 ft 306 kts 313°
2026-04-25 21:45 32.32894 -96.54152 21831 ft 308 kts 313°
2026-04-25 21:45 32.34450 -96.55907 21708 ft 309 kts 313°
2026-04-25 21:46 32.36005 -96.57662 21582 ft 310 kts 313°
2026-04-25 21:46 32.37569 -96.59428 21454 ft 310 kts 313°
2026-04-25 21:46 32.39119 -96.61179 21325 ft 311 kts 312°
2026-04-25 21:46 32.40686 -96.62949 21200 ft 311 kts 313°
2026-04-25 21:47 32.42256 -96.64723 21074 ft 312 kts 313°
2026-04-25 21:47 32.43834 -96.66508 20956 ft 313 kts 312°
2026-04-25 21:47 32.45394 -96.68273 20833 ft 313 kts 312°
2026-04-25 21:47 32.46978 -96.70065 20709 ft 314 kts 312°
2026-04-25 21:48 32.48564 -96.71861 20581 ft 314 kts 312°
2026-04-25 21:48 32.50144 -96.73652 20458 ft 315 kts 312°
2026-04-25 21:48 32.51730 -96.75449 20332 ft 315 kts 312°
2026-04-25 21:48 32.53320 -96.77254 20206 ft 315 kts 312°
2026-04-25 21:49 32.54894 -96.79040 20081 ft 316 kts 312°
2026-04-25 21:49 32.56484 -96.80844 19955 ft 316 kts 312°
2026-04-25 21:49 32.58076 -96.82653 19829 ft 316 kts 312°
2026-04-25 21:49 32.59655 -96.84445 19774 ft 314 kts 312°
2026-04-25 21:50 32.61220 -96.86224 19763 ft 312 kts 312°
2026-04-25 21:50 32.62793 -96.88013 19760 ft 310 kts 312°
2026-04-25 21:50 32.64339 -96.89774 19765 ft 308 kts 312°
2026-04-25 21:50 32.65358 -96.90933 19760 ft 307 kts 312°
2026-04-25 21:51 32.67400 -96.93261 19759 ft 305 kts 312°
2026-04-25 21:51 32.68945 -96.95022 19759 ft 304 kts 312°
2026-04-25 21:51 32.70446 -96.96735 19755 ft 303 kts 312°
2026-04-25 21:51 32.71970 -96.98473 19754 ft 302 kts 312°
2026-04-25 21:52 32.73480 -97.00197 19750 ft 301 kts 312°
2026-04-25 21:52 32.74986 -97.01918 19754 ft 300 kts 312°
2026-04-25 21:52 32.76501 -97.03650 19754 ft 300 kts 312°
2026-04-25 21:52 32.77996 -97.05359 19758 ft 299 kts 312°
2026-04-25 21:53 32.79489 -97.07067 19758 ft 299 kts 311°
2026-04-25 21:53 32.80981 -97.08775 19762 ft 298 kts 311°
2026-04-25 21:53 32.82467 -97.10477 19762 ft 298 kts 311°
2026-04-25 21:53 32.83973 -97.12202 19755 ft 298 kts 311°
2026-04-25 21:54 32.85454 -97.13899 19751 ft 297 kts 311°
2026-04-25 21:54 32.86950 -97.15615 19753 ft 297 kts 311°
2026-04-25 21:54 32.88414 -97.17328 19750 ft 295 kts 309°
2026-04-25 21:54 32.89456 -97.19359 19771 ft 288 kts 291°
2026-04-25 21:55 32.90182 -97.21581 19753 ft 289 kts 290°
2026-04-25 21:55 32.90905 -97.23838 19749 ft 289 kts 289°
2026-04-25 21:55 32.91611 -97.26053 19749 ft 289 kts 289°
2026-04-25 21:55 32.92327 -97.28295 19747 ft 289 kts 289°
2026-04-25 21:56 32.93034 -97.30502 19748 ft 289 kts 289°
2026-04-25 21:56 32.93517 -97.32007 19752 ft 288 kts 289°
2026-04-25 21:56 32.94472 -97.34986 19751 ft 288 kts 290°
2026-04-25 21:56 32.95180 -97.37195 19748 ft 288 kts 290°
2026-04-25 21:57 32.95890 -97.39410 19747 ft 288 kts 289°
2026-04-25 21:57 32.96610 -97.41654 19742 ft 288 kts 289°
2026-04-25 21:57 32.97319 -97.43869 19743 ft 288 kts 289°
2026-04-25 21:57 32.98035 -97.46103 19745 ft 287 kts 289°
2026-04-25 21:58 32.98746 -97.48323 19743 ft 287 kts 290°
2026-04-25 21:58 32.99455 -97.50539 19742 ft 287 kts 289°
2026-04-25 21:58 33.00169 -97.52772 19741 ft 287 kts 289°
2026-04-25 21:58 33.00872 -97.54974 19740 ft 286 kts 289°
2026-04-25 21:59 33.01582 -97.57197 19741 ft 286 kts 289°
2026-04-25 21:59 33.02283 -97.59392 19733 ft 286 kts 289°
2026-04-25 21:59 33.02991 -97.61610 19737 ft 286 kts 289°
2026-04-25 22:00 33.04399 -97.66032 19753 ft 285 kts 289°
2026-04-25 22:00 33.05104 -97.68247 19747 ft 286 kts 289°
2026-04-25 22:00 33.05812 -97.70472 19749 ft 286 kts 289°
2026-04-25 22:00 33.06509 -97.72666 19750 ft 286 kts 289°
2026-04-25 22:01 33.07216 -97.74894 19758 ft 286 kts 289°
2026-04-25 22:01 33.07915 -97.77097 19754 ft 287 kts 289°
2026-04-25 22:01 33.08622 -97.79324 19747 ft 287 kts 289°
2026-04-25 22:01 33.09091 -97.80807 19745 ft 287 kts 289°
2026-04-25 22:02 33.10033 -97.83784 19740 ft 287 kts 289°
2026-04-25 22:02 33.10741 -97.86021 19741 ft 287 kts 289°
2026-04-25 22:02 33.11436 -97.88217 19746 ft 286 kts 289°
2026-04-25 22:02 33.12145 -97.90458 19741 ft 286 kts 289°
2026-04-25 22:03 33.12849 -97.92688 19739 ft 286 kts 289°
2026-04-25 22:03 33.13544 -97.94891 19735 ft 286 kts 289°
2026-04-25 22:03 33.14247 -97.97119 19735 ft 286 kts 289°
2026-04-25 22:03 33.14941 -97.99321 19729 ft 286 kts 289°
2026-04-25 22:04 33.15638 -98.01538 19734 ft 286 kts 289°
2026-04-25 22:04 33.16338 -98.03762 19730 ft 287 kts 289°
2026-04-25 22:04 33.17041 -98.06000 19729 ft 287 kts 289°
2026-04-25 22:04 33.17738 -98.08216 19732 ft 287 kts 289°
2026-04-25 22:05 33.18436 -98.10441 19731 ft 286 kts 289°
2026-04-25 22:05 33.19131 -98.12654 19733 ft 286 kts 289°
2026-04-25 22:05 33.19825 -98.14870 19728 ft 285 kts 289°
2026-04-25 22:05 33.20521 -98.17092 19719 ft 285 kts 289°
2026-04-25 22:06 33.21218 -98.19321 19717 ft 284 kts 289°
2026-04-25 22:06 33.21903 -98.21510 19722 ft 284 kts 289°
2026-04-25 22:06 33.22597 -98.23731 19719 ft 283 kts 289°
2026-04-25 22:06 33.23282 -98.25922 19723 ft 283 kts 289°
2026-04-25 22:07 33.23969 -98.28123 19726 ft 282 kts 289°
2026-04-25 22:07 33.24428 -98.29595 19722 ft 282 kts 289°
2026-04-25 22:07 33.25332 -98.32494 19727 ft 281 kts 289°
2026-04-25 22:07 33.26015 -98.34687 19731 ft 281 kts 289°
2026-04-25 22:08 33.26696 -98.36877 19726 ft 280 kts 289°
2026-04-25 22:08 33.27369 -98.39040 19725 ft 280 kts 289°
2026-04-25 22:08 33.28049 -98.41228 19723 ft 279 kts 289°
2026-04-25 22:08 33.28723 -98.43398 19729 ft 279 kts 288°
2026-04-25 22:09 33.29393 -98.45558 19726 ft 278 kts 289°
2026-04-25 22:09 33.30066 -98.47728 19726 ft 278 kts 289°
2026-04-25 22:09 33.30735 -98.49887 19729 ft 277 kts 289°
2026-04-25 22:09 33.31397 -98.52024 19727 ft 277 kts 289°
2026-04-25 22:10 33.32066 -98.54186 19722 ft 276 kts 289°
2026-04-25 22:10 33.32734 -98.56348 19720 ft 276 kts 289°
2026-04-25 22:10 33.33391 -98.58472 19718 ft 275 kts 289°
2026-04-25 22:10 33.34051 -98.60611 19718 ft 274 kts 289°
2026-04-25 22:11 33.34712 -98.62753 19719 ft 274 kts 289°
2026-04-25 22:11 33.35367 -98.64878 19718 ft 274 kts 288°
2026-04-25 22:11 33.36030 -98.67030 19714 ft 275 kts 288°
2026-04-25 22:11 33.36687 -98.69162 19717 ft 275 kts 288°
2026-04-25 22:12 33.37347 -98.71308 19711 ft 275 kts 288°
2026-04-25 22:12 33.38010 -98.73465 19708 ft 275 kts 288°
2026-04-25 22:12 33.38663 -98.75589 19704 ft 274 kts 288°
2026-04-25 22:12 33.39104 -98.77023 19707 ft 274 kts 288°
2026-04-25 22:13 33.39979 -98.79875 19711 ft 273 kts 288°
2026-04-25 22:13 33.40627 -98.81988 19708 ft 273 kts 288°
2026-04-25 22:13 33.41279 -98.84119 19709 ft 273 kts 288°
2026-04-25 22:13 33.41934 -98.86258 19714 ft 272 kts 288°
2026-04-25 22:14 33.42580 -98.88367 19712 ft 272 kts 288°
2026-04-25 22:14 33.43233 -98.90503 19705 ft 272 kts 288°
2026-04-25 22:14 33.43879 -98.92618 19709 ft 271 kts 288°
2026-04-25 22:14 33.44531 -98.94754 19709 ft 271 kts 288°
2026-04-25 22:15 33.45173 -98.96858 19707 ft 271 kts 288°
2026-04-25 22:15 33.45818 -98.98973 19706 ft 271 kts 288°
2026-04-25 22:15 33.46466 -99.01097 19704 ft 271 kts 288°
2026-04-25 22:16 33.47745 -99.05304 19705 ft 270 kts 288°
2026-04-25 22:16 33.48385 -99.07407 19710 ft 269 kts 288°
2026-04-25 22:16 33.49027 -99.09519 19707 ft 268 kts 288°
2026-04-25 22:16 33.49659 -99.11600 19705 ft 268 kts 288°
2026-04-25 22:17 33.50295 -99.13699 19702 ft 268 kts 288°
2026-04-25 22:17 33.50932 -99.15797 19704 ft 267 kts 288°
2026-04-25 22:17 33.51563 -99.17882 19702 ft 267 kts 288°
2026-04-25 22:17 33.52194 -99.19966 19707 ft 267 kts 288°
2026-04-25 22:18 33.52827 -99.22060 19708 ft 267 kts 288°
2026-04-25 22:18 33.53451 -99.24125 19714 ft 266 kts 288°
2026-04-25 22:18 33.54082 -99.26211 19710 ft 266 kts 288°
2026-04-25 22:18 33.54714 -99.28302 19708 ft 266 kts 288°
2026-04-25 22:19 33.55345 -99.30394 19706 ft 266 kts 288°
2026-04-25 22:19 33.55967 -99.32455 19708 ft 265 kts 288°
2026-04-25 22:19 33.56594 -99.34538 19709 ft 265 kts 288°
2026-04-25 22:19 33.57219 -99.36615 19711 ft 265 kts 288°
2026-04-25 22:20 33.57839 -99.38675 19713 ft 264 kts 288°
2026-04-25 22:20 33.58463 -99.40752 19712 ft 264 kts 288°
2026-04-25 22:20 33.59081 -99.42807 19708 ft 264 kts 288°
2026-04-25 22:20 33.59708 -99.44897 19708 ft 264 kts 288°
2026-04-25 22:21 33.60325 -99.46952 19707 ft 264 kts 288°
2026-04-25 22:21 33.60947 -99.49029 19704 ft 264 kts 288°
2026-04-25 22:21 33.61569 -99.51105 19703 ft 264 kts 288°
2026-04-25 22:21 33.62185 -99.53163 19707 ft 264 kts 288°
2026-04-25 22:22 33.62810 -99.55254 19704 ft 264 kts 288°
2026-04-25 22:22 33.63425 -99.57310 19709 ft 264 kts 288°
2026-04-25 22:22 33.64047 -99.59390 19709 ft 263 kts 288°
2026-04-25 22:22 33.64660 -99.61443 19709 ft 263 kts 287°
2026-04-25 22:23 33.65279 -99.63516 19709 ft 263 kts 288°
2026-04-25 22:23 33.65892 -99.65575 19716 ft 263 kts 287°
2026-04-25 22:23 33.66511 -99.67653 19718 ft 263 kts 287°
2026-04-25 22:23 33.67122 -99.69705 19719 ft 264 kts 287°
2026-04-25 22:24 33.67742 -99.71790 19716 ft 264 kts 287°
2026-04-25 22:24 33.68361 -99.73870 19723 ft 264 kts 287°
2026-04-25 22:24 33.68975 -99.75938 19719 ft 264 kts 287°
2026-04-25 22:24 33.69585 -99.77995 19721 ft 264 kts 287°
2026-04-25 22:25 33.70203 -99.80078 19720 ft 265 kts 287°
2026-04-25 22:25 33.70823 -99.82168 19723 ft 265 kts 287°
2026-04-25 22:25 33.71439 -99.84248 19722 ft 265 kts 287°
2026-04-25 22:25 33.72047 -99.86301 19724 ft 265 kts 287°
2026-04-25 22:26 33.72668 -99.88398 19721 ft 265 kts 287°
2026-04-25 22:26 33.73283 -99.90479 19723 ft 265 kts 287°
2026-04-25 22:26 33.73896 -99.92555 19731 ft 264 kts 287°
2026-04-25 22:26 33.74508 -99.94627 19734 ft 265 kts 287°
2026-04-25 22:27 33.75126 -99.96722 19732 ft 265 kts 287°
2026-04-25 22:27 33.75741 -99.98809 19733 ft 265 kts 287°
2026-04-25 22:27 33.76354 -100.00889 19740 ft 264 kts 287°
2026-04-25 22:27 33.76966 -100.02967 19737 ft 265 kts 287°
2026-04-25 22:28 33.77574 -100.05035 19733 ft 265 kts 287°
2026-04-25 22:28 33.78189 -100.07129 19736 ft 265 kts 287°
2026-04-25 22:28 33.78795 -100.09193 19737 ft 265 kts 287°
2026-04-25 22:28 33.79410 -100.11287 19737 ft 265 kts 287°
2026-04-25 22:29 33.80019 -100.13363 19734 ft 264 kts 287°
2026-04-25 22:29 33.80630 -100.15450 19734 ft 264 kts 287°
2026-04-25 22:29 33.81235 -100.17519 19734 ft 264 kts 287°
2026-04-25 22:30 33.82451 -100.21673 19733 ft 263 kts 287°
2026-04-25 22:30 33.83060 -100.23756 19736 ft 263 kts 287°
2026-04-25 22:30 33.83666 -100.25829 19743 ft 263 kts 287°
2026-04-25 22:30 33.84062 -100.27184 19748 ft 262 kts 287°
2026-04-25 22:31 33.84869 -100.29951 19752 ft 262 kts 287°
2026-04-25 22:31 33.85474 -100.32029 19753 ft 262 kts 287°
2026-04-25 22:31 33.86070 -100.34075 19751 ft 262 kts 287°
2026-04-25 22:31 33.86675 -100.36151 19753 ft 262 kts 287°
2026-04-25 22:32 33.87381 -100.38187 19738 ft 265 kts 297°
2026-04-25 22:32 33.88463 -100.39963 19753 ft 267 kts 304°
2026-04-25 22:32 33.89631 -100.41709 19757 ft 267 kts 304°
2026-04-25 22:32 33.90797 -100.43454 19757 ft 267 kts 304°
2026-04-25 22:33 33.91966 -100.45208 19761 ft 267 kts 304°
2026-04-25 22:33 33.93118 -100.46941 19766 ft 267 kts 304°
2026-04-25 22:33 33.94282 -100.48699 19763 ft 268 kts 304°
2026-04-25 22:33 33.95430 -100.50436 19765 ft 268 kts 304°
2026-04-25 22:34 33.96594 -100.52200 19763 ft 268 kts 304°
2026-04-25 22:34 33.97756 -100.53961 19771 ft 268 kts 304°
2026-04-25 22:34 33.98904 -100.55705 19777 ft 268 kts 304°
2026-04-25 22:34 34.00064 -100.57468 19774 ft 268 kts 303°
2026-04-25 22:35 34.01229 -100.59240 19775 ft 268 kts 304°
2026-04-25 22:35 34.02377 -100.60989 19778 ft 268 kts 304°
2026-04-25 22:35 34.03536 -100.62755 19781 ft 268 kts 303°
2026-04-25 22:35 34.04695 -100.64521 19780 ft 268 kts 304°
2026-04-25 22:36 34.05857 -100.66293 19781 ft 269 kts 303°
2026-04-25 22:36 34.07014 -100.68061 19782 ft 269 kts 303°
2026-04-25 22:36 34.08174 -100.69833 19785 ft 270 kts 303°
2026-04-25 22:36 34.09333 -100.71604 19787 ft 270 kts 303°
2026-04-25 22:37 34.10509 -100.73401 19788 ft 270 kts 303°
2026-04-25 22:37 34.11674 -100.75183 19790 ft 271 kts 303°
2026-04-25 22:37 34.12839 -100.76965 19790 ft 271 kts 303°
2026-04-25 22:37 34.14005 -100.78750 19795 ft 271 kts 303°
2026-04-25 22:38 34.15172 -100.80538 19796 ft 271 kts 303°
2026-04-25 22:38 34.16340 -100.82330 19798 ft 271 kts 303°
2026-04-25 22:38 34.17494 -100.84098 19802 ft 271 kts 303°
2026-04-25 22:38 34.18660 -100.85886 19801 ft 271 kts 303°
2026-04-25 22:39 34.19826 -100.87676 19806 ft 271 kts 303°
2026-04-25 22:39 34.21001 -100.89481 19802 ft 271 kts 303°
2026-04-25 22:39 34.22166 -100.91273 19796 ft 272 kts 303°
2026-04-25 22:39 34.23329 -100.93060 19795 ft 272 kts 303°
2026-04-25 22:40 34.24504 -100.94867 19800 ft 272 kts 303°
2026-04-25 22:40 34.25677 -100.96672 19801 ft 272 kts 303°
2026-04-25 22:40 34.26836 -100.98457 19808 ft 272 kts 303°
2026-04-25 22:40 34.28011 -101.00267 19811 ft 272 kts 303°
2026-04-25 22:41 34.29184 -101.02075 19816 ft 272 kts 303°
2026-04-25 22:41 34.30338 -101.03854 19818 ft 272 kts 303°
2026-04-25 22:41 34.31506 -101.05656 19821 ft 272 kts 303°
2026-04-25 22:41 34.32678 -101.07465 19824 ft 272 kts 303°
2026-04-25 22:42 34.33848 -101.09272 19826 ft 272 kts 303°
2026-04-25 22:42 34.35013 -101.11072 19830 ft 272 kts 303°
2026-04-25 22:42 34.36189 -101.12889 19837 ft 272 kts 303°
2026-04-25 22:42 34.37349 -101.14684 19835 ft 272 kts 303°
2026-04-25 22:43 34.38522 -101.16499 19837 ft 272 kts 303°
2026-04-25 22:43 34.39689 -101.18306 19841 ft 273 kts 303°
2026-04-25 22:43 34.40844 -101.20094 19845 ft 273 kts 303°
2026-04-25 22:43 34.42012 -101.21905 19847 ft 273 kts 303°
2026-04-25 22:44 34.43179 -101.23715 19852 ft 273 kts 303°
2026-04-25 22:44 34.44353 -101.25536 19854 ft 273 kts 303°
2026-04-25 22:44 34.45517 -101.27343 19857 ft 272 kts 303°
2026-04-25 22:44 34.46682 -101.29151 19860 ft 272 kts 303°
2026-04-25 22:45 34.47850 -101.30966 19865 ft 273 kts 303°
2026-04-25 22:45 34.49018 -101.32782 19859 ft 273 kts 303°
2026-04-25 22:45 34.50171 -101.34576 19861 ft 273 kts 303°
2026-04-25 22:45 34.51339 -101.36394 19860 ft 273 kts 303°
2026-04-25 22:46 34.52506 -101.38210 19794 ft 270 kts 303°
2026-04-25 22:46 34.53657 -101.40012 19049 ft 275 kts 303°
2026-04-25 22:46 34.54823 -101.41843 18185 ft 281 kts 303°
2026-04-25 22:46 34.56026 -101.43727 17320 ft 287 kts 303°
2026-04-25 22:47 34.57258 -101.45656 16452 ft 291 kts 304°
2026-04-25 22:47 34.58481 -101.47568 15691 ft 293 kts 304°
2026-04-25 22:47 34.59737 -101.49528 15129 ft 296 kts 304°
2026-04-25 22:47 34.61006 -101.51505 14666 ft 298 kts 304°
2026-04-25 22:48 34.62283 -101.53499 14234 ft 299 kts 304°
2026-04-25 22:48 34.63555 -101.55487 13815 ft 299 kts 305°
2026-04-25 22:48 34.64816 -101.57459 13406 ft 299 kts 305°
2026-04-25 22:48 34.66089 -101.59454 12990 ft 298 kts 305°
2026-04-25 22:49 34.67343 -101.61418 12584 ft 296 kts 305°
2026-04-25 22:49 34.68613 -101.63411 12174 ft 295 kts 305°
2026-04-25 22:49 34.69849 -101.65351 11774 ft 293 kts 305°
2026-04-25 22:49 34.71106 -101.67325 11369 ft 292 kts 305°
2026-04-25 22:50 34.72346 -101.69270 10970 ft 291 kts 305°
2026-04-25 22:50 34.73622 -101.71178 10498 ft 294 kts 311°
2026-04-25 22:50 34.75375 -101.72407 10108 ft 298 kts 343°
2026-04-25 22:50 34.77420 -101.72329 9906 ft 296 kts 13°
2026-04-25 22:51 34.79317 -101.71442 9750 ft 289 kts 20°
2026-04-25 22:51 34.81150 -101.70483 9608 ft 281 kts 21°
2026-04-25 22:51 34.82932 -101.69534 9476 ft 274 kts 21°
2026-04-25 22:51 34.84669 -101.68652 9314 ft 268 kts 14°
2026-04-25 22:52 34.86464 -101.68564 9060 ft 256 kts 340°
2026-04-25 22:52 34.87993 -101.69521 8957 ft 245 kts 324°
2026-04-25 22:52 34.89419 -101.70673 8802 ft 243 kts 322°
2026-04-25 22:52 34.90338 -101.71447 8694 ft 242 kts 322°
2026-04-25 22:53 34.92180 -101.73045 8471 ft 242 kts 321°
2026-04-25 22:53 34.93543 -101.74255 8296 ft 241 kts 321°
2026-04-25 22:53 34.94885 -101.75468 8122 ft 241 kts 321°
2026-04-25 22:53 34.96235 -101.76702 7945 ft 241 kts 320°
2026-04-25 22:54 34.97563 -101.77928 7767 ft 241 kts 320°
2026-04-25 22:54 34.98904 -101.79172 7591 ft 241 kts 320°
2026-04-25 22:54 35.00242 -101.80418 7413 ft 241 kts 320°
2026-04-25 22:54 35.01574 -101.81663 7237 ft 241 kts 320°
2026-04-25 22:55 35.02833 -101.83003 7063 ft 240 kts 315°
2026-04-25 22:55 35.04043 -101.84422 6884 ft 238 kts 314°
2026-04-25 22:55 35.05222 -101.85816 6711 ft 236 kts 314°
2026-04-25 22:55 35.06432 -101.87159 6431 ft 239 kts 323°
2026-04-25 22:56 35.08000 -101.87682 6196 ft 231 kts
2026-04-25 22:56 35.09405 -101.86902 6044 ft 221 kts 37°
2026-04-25 22:56 35.10512 -101.85641 5889 ft 211 kts 42°
2026-04-25 22:56 35.11523 -101.84425 5745 ft 196 kts 42°
2026-04-25 22:57 35.12442 -101.83301 5623 ft 183 kts 42°
2026-04-25 22:57 35.13327 -101.82209 5485 ft 176 kts 43°
2026-04-25 22:57 35.14168 -101.81168 5345 ft 167 kts 43°
2026-04-25 22:57 35.14968 -101.80172 5222 ft 161 kts 44°
2026-04-25 22:58 35.15748 -101.79195 5014 ft 164 kts 44°
2026-04-25 22:58 35.16545 -101.78198 4790 ft 162 kts 44°
2026-04-25 22:58 35.17324 -101.77226 4569 ft 159 kts 44°
2026-04-25 22:58 35.18108 -101.76283 4316 ft 155 kts 43°
2026-04-25 22:59 35.18866 -101.75362 4030 ft 152 kts 45°
2026-04-25 22:59 35.19576 -101.74455 3847 ft 144 kts 45°
2026-04-25 22:59 35.20262 -101.73588 3685 ft 143 kts 45°
2026-04-25 22:59 35.20939 -101.72733 3593 ft 118 kts 45°
2026-04-25 23:00 35.21281 -101.72300 3604 ft 41 kts 45°
2026-04-25 23:00 35.21334 -101.72154 3610 ft 12 kts 133°
2026-04-25 23:00 35.21278 -101.72089 3611 ft 10 kts 135°
2026-04-25 23:00 35.21234 -101.72037 3612 ft 8 kts 136°
2026-04-25 23:01 35.21181 -101.71976 3613 ft 12 kts 136°
2026-04-25 23:01 35.21195 -101.71886 3613 ft 14 kts 45°
2026-04-25 23:01 35.21271 -101.71792 3614 ft 16 kts 45°
2026-04-25 23:01 35.21357 -101.71686 3615 ft 18 kts 47°
2026-04-25 23:02 35.21451 -101.71565 3616 ft 20 kts 46°
2026-04-25 23:02 35.21540 -101.71452 3616 ft 17 kts 45°
2026-04-25 23:02 35.21633 -101.71334 3616 ft 20 kts 46°
2026-04-25 23:02 35.21738 -101.71199 3613 ft 20 kts 45°
2026-04-25 23:03 35.21823 -101.71094 3613 ft 15 kts 45°
2026-04-25 23:03 35.21906 -101.70989 3611 ft 17 kts 46°
2026-04-25 23:03 35.21985 -101.70890 3609 ft 14 kts 45°
2026-04-25 23:03 35.22060 -101.70795 3608 ft 17 kts 45°
2026-04-25 23:04 35.22041 -101.70699 3606 ft 12 kts 161°
2026-04-25 23:04 35.21980 -101.70740 3608 ft 8 kts 227°
2026-04-25 23:04 35.21911 -101.70753 3609 ft 13 kts 168°
2026-04-25 23:04 35.21840 -101.70715 3609 ft 6 kts 152°
2026-04-25 23:05 35.21826 -101.70706 3609 ft 0 kts 153°